Stations météo

réclame
Mon MeteoGroup
Cuxhaven, Allemagne (10131): Température de l'air & dewpoint: 19.11.2017 02:00:00 - 25.11.2017 02:00:00 (CET)Cuxhaven, Allemagne (10131): Température de l'air 5cm: 19.11.2017 02:00:00 - 25.11.2017 02:00:00 (CET)Cuxhaven, Allemagne (10131): Vitesse du vent & gusts: 19.11.2017 02:00:00 - 25.11.2017 02:00:00 (CET)Cuxhaven, Allemagne (10131): Direction du vent: 19.11.2017 02:00:00 - 25.11.2017 02:00:00 (CET)Cuxhaven, Allemagne (10131): reduced air pressure: 19.11.2017 02:00:00 - 25.11.2017 02:00:00 (CET)Cuxhaven, Allemagne (10131): visibility: 19.11.2017 02:00:00 - 25.11.2017 02:00:00 (CET)Cuxhaven, Allemagne (10131): Ensoleillement: 19.11.2017 02:00:00 - 25.11.2017 02:00:00 (CET)Cuxhaven, Allemagne (10131): Quantités de précipitations: 19.11.2017 02:00:00 - 25.11.2017 02:00:00 (CET)
Date & Time tt [°C] td [°C] tt 5cm [°C] ff [km/h] ff [knt] fx [km/h] fx [knt] dd ppp [hPa] vv [km] sd [min] rr [mm]
25.11.2017 02:00:00 4,2 3,4 2,8 10 5 19 10 SSW 1010,7 6 0 0,0
25.11.2017 01:00:00 4,7 3,6 3,1 9 5 18 10 SSW 1010,9 6 0 0,0
25.11.2017 00:00:00 4,8 3,9 2,7 11 6 19 10 WSW 1010,8 7 0 0,0
24.11.2017 23:00:00 4,7 4,0 2,5 11 6 18 10 SW 1010,9 8 0 0,0
24.11.2017 22:00:00 5,1 4,0 3,0 9 5 15 8 SSW 1010,9 13 0 0,0
24.11.2017 21:00:00 5,6 4,2 2,7 8 4 23 12 SW 1010,9 16 0 0,1
24.11.2017 20:00:00 6,2 3,5 3,9 12 7 29 15 SW 1010,7 24 0 0,0
24.11.2017 19:00:00 6,6 4,2 4,9 13 7 27 15 SW 1010,1 25 0 0,0
24.11.2017 18:00:00 7,1 4,7 6,0 15 8 26 14 WSW 1009,9 25 0 0,0
24.11.2017 17:00:00 7,1 3,8 5,9 16 9 34 18 WSW 1009,2 21 0 0,0
24.11.2017 16:00:00 7,5 5,2 6,0 16 9 30 16 WSW 1008,7 19 20 0,0
24.11.2017 15:00:00 7,7 5,1 7,3 11 6 32 17 W 1008,3 24 8 0,0
24.11.2017 14:00:00 7,9 4,2 7,3 14 7 29 16 WSW 1007,7 25 1 0,0
24.11.2017 13:00:00 7,5 4,6 6,5 11 6 25 14 SW 1007,4 21 0 0,2
24.11.2017 12:00:00 7,3 5,9 6,7 16 9 31 17 WSW 1007,4 6 0 0,0
24.11.2017 11:00:00 7,3 5,2 7,0 12 7 28 15 SW 1006,8 27 0 0,0
24.11.2017 10:00:00 7,1 5,0 6,6 13 7 27 15 SSW 1006,2 29 0 0,0
24.11.2017 09:00:00 7,4 5,2 6,8 14 8 26 14 SSW 1006,1 18 0 0,0
24.11.2017 08:00:00 7,5 5,4 6,7 14 7 23 12 SSW 1005,8 16 0 0,0
24.11.2017 07:00:00 7,3 5,6 6,5 10 6 22 12 S 1005,7 14 0 0,0
24.11.2017 06:00:00 7,7 5,4 6,8 12 7 27 15 SSW 1006,1 13 0 0,0
24.11.2017 05:00:00 7,7 5,2 6,7 12 6 29 16 SW 1006,1 17 0 0,0
24.11.2017 04:00:00 7,8 5,1 6,7 14 8 35 19 SSW 1005,8 37 0 0,0
24.11.2017 03:00:00 7,6 5,1 6,8 15 8 30 16 SSW 1006,2 20 0 0,0
24.11.2017 02:00:00 7,5 4,8 6,5 16 8 34 18 SSW 1006,3 30 0 0,0
24.11.2017 01:00:00 7,8 4,6 6,4 19 10 39 21 SSW 1005,9 27 0 0,0
24.11.2017 00:00:00 8,1 4,6 6,0 22 12 50 27 SSW 1005,6 21 0 0,0
23.11.2017 23:00:00 8,1 4,7 6,0 24 13 49 27 SW 1005,2 21 0 0,0
23.11.2017 22:00:00 8,2 4,7 6,0 23 13 41 22 SW 1004,7 23 0 0,0
23.11.2017 21:00:00 8,3 5,6 6,1 21 11 38 21 SW 1004,3 32 0 0,0
23.11.2017 20:00:00 8,4 6,7 6,4 20 11 35 19 SW 1003,5 33 0 0,0
23.11.2017 19:00:00 8,5 5,7 6,4 22 12 40 21 WSW 1002,6 20 0 0,0
23.11.2017 18:00:00 8,9 7,3 7,2 23 12 42 23 WSW 1001,2 17 0 0,6
23.11.2017 17:00:00 9,2 8,3 8,5 20 11 55 30 WSW 1000,0 4,0 0 3,2
23.11.2017 16:00:00 12,1 10,6 11,0 27 15 54 29 WSW 998,2 2,0 4 0,0
23.11.2017 15:00:00 13,2 9,5 11,5 30 16 53 28 SW 997,1 25 0 0,0
23.11.2017 14:00:00 11,9 9,7 11,0 33 18 58 31 SSW 996,6 25 0 0,9
23.11.2017 13:00:00 12,2 8,7 10,2 24 13 62 34 SSW 995,7 9 0 0,7
23.11.2017 12:00:00 13,5 6,3 13,0 27 15 60 32 SSW 995,3 27 1 0,0
23.11.2017 11:00:00 12,9 5,5 12,2 19 10 55 30 S 995,4 23 34 0,0
23.11.2017 10:00:00 11,7 4,9 10,5 21 11 44 24 S 995,6 25 0 0,0
23.11.2017 09:00:00 12,0 4,4 10,9 19 11 43 23 S 996,0 23 0 0,0
23.11.2017 08:00:00 11,3 4,0 10,2 19 10 42 23 S 996,2 43 0 0,0
23.11.2017 07:00:00 11,5 3,9 10,3 19 10 40 22 S 996,8 25 0 0,0
23.11.2017 06:00:00 10,2 3,9 9,2 18 10 39 21 SSE 996,4 31 0 0,0
23.11.2017 05:00:00 10,4 3,9 9,3 16 9 34 18 S 997,3 50 0 0,0
23.11.2017 04:00:00 10,6 3,7 9,0 16 9 45 24 S 997,8 24 0 0,0
23.11.2017 03:00:00 10,6 3,6 9,0 16 9 55 30 S 998,4 24 0 0,0
23.11.2017 02:00:00 11,0 3,5 9,2 22 12 49 26 S 998,6 21 0 0,0
23.11.2017 01:00:00 10,5 3,9 8,5 16 8 41 22 S 998,7 24 0 0,0
23.11.2017 00:00:00 10,4 4,5 8,6 17 9 36 19 S 999,1 19 0 0,0
22.11.2017 23:00:00 10,7 5,1 8,9 18 10 44 24 S 999,7 24 0 0,0
22.11.2017 22:00:00 10,9 5,7 9,1 19 10 48 26 S 1000,0 19 0 0,0
22.11.2017 21:00:00 10,7 6,2 8,9 17 9 38 21 S 1000,2 13 0 0,0
22.11.2017 20:00:00 10,3 6,7 8,7 14 8 42 23 S 1000,7 9 0 0,0
22.11.2017 19:00:00 10,3 7,2 8,7 19 10 48 26 S 1001,3 8 0 0,0
22.11.2017 18:00:00 10,3 7,6 9,0 22 12 45 25 SSW 1001,6 8 0 0,0
22.11.2017 17:00:00 10,9 8,1 9,4 19 10 44 24 SSW 1001,7 7 0 0,0
22.11.2017 16:00:00 11,4 8,5 10,4 23 13 51 28 SSW 1002,0 9 0 0,0
22.11.2017 15:00:00 11,3 9,0 10,9 27 14 53 29 SSW 1002,1 8 0 0,0
22.11.2017 14:00:00 11,2 9,4 10,2 24 13 48 26 SSW 1002,1 7 0 0,0
22.11.2017 13:00:00 10,9 9,7 10,2 23 12 47 25 SSW 1002,5 6 0 0,1
22.11.2017 12:00:00 10,5 10,0 10,1 27 15 48 26 SW 1002,7 1,6 0 0,5
22.11.2017 11:00:00 10,7 10,1 10,1 22 12 47 26 SW 1002,6 3,3 0 0,0
22.11.2017 10:00:00 10,6 10,2 10,2 22 12 50 27 SW 1002,3 2,3 0 0,0
22.11.2017 09:00:00 10,5 10,2 10,0 22 12 47 26 SW 1001,7 3,5 0 0,0
22.11.2017 08:00:00 10,3 10,0 9,8 22 12 50 27 SW 1001,4 2,4 0 0,2
22.11.2017 07:00:00 10,2 9,8 9,6 26 14 57 31 SW 1001,1 3,2 0 0,1
22.11.2017 06:00:00 10,3 9,7 9,6 23 13 54 29 SW 1000,9 4,5 0 0,0
22.11.2017 05:00:00 10,2 9,8 9,6 26 14 49 26 SSW 1001,1 2,6 0 0,6
22.11.2017 04:00:00 10,1 9,5 9,4 27 14 47 26 SW 1001,7 4,0 0 0,0
22.11.2017 03:00:00 10,2 9,5 9,5 20 11 41 22 SSW 1002,2 2,6 0 0,0
22.11.2017 02:00:00 10,6 9,5 9,7 21 11 40 21 SSW 1002,7 3,4 0 0,0
22.11.2017 01:00:00 10,7 9,8 9,9 21 12 37 20 SW 1002,9 4,5 0 0,0
22.11.2017 00:00:00 10,5 10,2 9,7 17 9 39 21 SW 1003,5 4,9 0 0,6
21.11.2017 23:00:00 8,5 8,5 8,2 10 5 21 11 S 1004,3 1,4 0 1,2
21.11.2017 22:00:00 7,0 7,0 6,9 10 5 23 12 SSE 1004,9 2,1 0 0,6
21.11.2017 21:00:00 6,6 6,6 6,4 15 8 26 14 SE 1005,3 1,8 0 0,6
21.11.2017 20:00:00 6,5 6,5 6,3 19 10 25 13 ESE 1005,9 4,2 0 0,5
21.11.2017 19:00:00 6,5 6,4 6,3 16 9 22 12 ESE 1006,4 4,8 0 0,4
21.11.2017 18:00:00 6,4 6,4 6,3 16 9 25 14 SE 1006,7 2,0 0 0,4
21.11.2017 17:00:00 6,3 6,3 6,2 18 10 27 14 SE 1007,1 4,9 0 0,6
21.11.2017 16:00:00 6,2 6,2 6,1 19 10 25 13 SE 1007,3 1,4 0 0,0
21.11.2017 15:00:00 6,1 5,9 6,2 16 8 24 13 SE 1007,6 3,2 0 0,1
21.11.2017 14:00:00 6,0 5,8 6,2 15 8 21 11 ESE 1008,3 2,5 0 0,0
21.11.2017 13:00:00 5,8 5,5 6,1 14 7 19 11 ESE 1008,8 2,6 0 0,1
21.11.2017 12:00:00 5,5 4,9 5,7 12 6 21 11 SE 1009,3 4,0 0 0,0
21.11.2017 11:00:00 5,3 5,0 5,4 14 7 21 11 ESE 1009,5 3,2 0 0,0
21.11.2017 10:00:00 5,2 4,8 5,2 13 7 19 10 ESE 1009,3 4,3 0 0,0
21.11.2017 09:00:00 4,8 4,5 4,6 7 4 17 9 SE 1009,2 3,8 0 0,1
21.11.2017 08:00:00 4,7 4,4 4,5 10 5 16 9 SE 1008,7 3,5 0 0,0
21.11.2017 07:00:00 4,7 4,4 4,5 8 4 20 11 ESE 1008,9 2,6 0 0,0
21.11.2017 06:00:00 5,0 4,6 4,7 17 9 23 12 ESE 1008,5 4,7 0 0,0
21.11.2017 05:00:00 4,9 4,5 4,7 13 7 18 10 ESE 1008,7 3,6 0 0,0
21.11.2017 04:00:00 4,7 4,4 4,5 10 5 16 9 SE 1008,6 2,6 0 0,0
21.11.2017 03:00:00 4,5 4,0 4,3 10 6 18 10 SE 1008,5 3,0 0 0,0
21.11.2017 02:00:00 4,5 3,9 4,2 10 6 27 14 SE 1008,4 3,1 0 0,0
21.11.2017 01:00:00 4,6 3,9 4,3 11 6 27 15 SE 1008,5 3,6 0 0,0
21.11.2017 00:00:00 4,7 4,0 4,3 18 10 27 14 ESE 1008,7 3,5 0 0,0
20.11.2017 23:00:00 4,4 3,7 4,1 14 8 22 12 SE 1008,9 3,6 0 0,0
20.11.2017 22:00:00 4,3 3,7 3,9 9 5 24 13 SE 1009,1 3,3 0 0,0
20.11.2017 21:00:00 4,3 3,5 3,9 10 6 21 11 SSE 1009,4 3,9 0 0,0
20.11.2017 20:00:00 4,4 3,6 4,0 10 5 24 13 SSE 1009,7 6 0 0,0
20.11.2017 19:00:00 4,6 3,4 4,1 10 6 22 12 SSE 1010,4 6 0 0,0
20.11.2017 18:00:00 4,9 3,7 4,3 7 4 23 12 S 1010,8 9 0 0,0
20.11.2017 17:00:00 4,9 3,9 4,2 10 5 26 14 SSW 1011,2 14 0 0,0
20.11.2017 16:00:00 5,2 3,9 4,4 14 8 30 16 SSW 1011,7 27 0 0,1
20.11.2017 15:00:00 5,4 4,2 5,0 16 9 36 19 SW 1012,3 13 0 0,2
20.11.2017 14:00:00 5,7 4,6 5,3 16 9 36 19 WSW 1013,0 17 0 0,1
20.11.2017 13:00:00 5,9 5,1 5,9 22 12 44 24 WSW 1013,3 6 0 0,9
20.11.2017 12:00:00 6,3 5,4 5,9 17 9 31 17 WSW 1013,8 4,5 0 0,2
20.11.2017 11:00:00 6,0 5,1 5,5 16 9 31 17 WSW 1014,0 8 0 1,3
20.11.2017 10:00:00 6,1 5,0 5,5 13 7 23 13 WSW 1013,9 25 0 0,0
20.11.2017 09:00:00 6,3 3,4 4,6 9 5 20 11 W 1014,1 28 0 0,3
20.11.2017 08:00:00 6,2 3,8 4,8 8 5 19 10 WSW 1014,1 2,1 0 0,0
20.11.2017 07:00:00 5,7 3,2 3,7 16 8 45 24 NW 1014,2 26 0 0,1
20.11.2017 06:00:00 7,1 2,0 5,0 21 11 32 17 WNW 1014,1 25 0 0,0
20.11.2017 05:00:00 7,1 2,6 4,8 20 11 46 25 W 1014,2 22 0 0,0
20.11.2017 04:00:00 7,4 3,5 5,9 22 12 45 24 WNW 1014,2 16 0 0,0
20.11.2017 03:00:00 7,8 0,9 5,7 29 15 48 26 WNW 1014,2 45 0 0,0
20.11.2017 02:00:00 7,7 3,0 5,4 30 16 49 27 WNW 1014,2 21 0 0,0
20.11.2017 01:00:00 7,4 3,0 4,5 27 14 41 22 WNW 1014,1 23 0 0,0
20.11.2017 00:00:00 6,6 4,0 4,7 21 11 69 38 NW 1014,1 22 0 0,7
19.11.2017 23:00:00 7,1 4,0 5,9 23 12 48 26 WNW 1013,9 17 0 0,0
19.11.2017 22:00:00 6,9 2,8 5,5 32 17 46 25 WNW 1013,6 39 0 0,0
19.11.2017 21:00:00 6,8 3,5 5,1 32 18 59 32 WNW 1013,1 29 0 0,1
19.11.2017 20:00:00 7,6 4,1 6,1 36 20 49 27 NW 1012,1 38 0 0,0
19.11.2017 19:00:00 7,5 3,8 5,9 34 18 54 29 NW 1011,3 66 0 0,0
19.11.2017 18:00:00 7,5 4,9 6,7 28 15 51 28 WNW 1010,6 24 0 0,0
19.11.2017 17:00:00 7,6 4,0 6,2 39 21 53 29 NW 1009,9 25 0 0,0
19.11.2017 16:00:00 6,9 4,6 5,9 45 25 70 38 NW 1009,2 10 3 0,0
19.11.2017 15:00:00 8,3 4,0 7,1 44 24 70 38 WNW 1008,4 19 5 0,1
19.11.2017 14:00:00 8,1 4,4 7,4 40 22 69 37 WNW 1008,1 16 15 0,0
19.11.2017 13:00:00 8,7 4,5 8,0 40 21 73 39 WNW 1007,8 18 17 0,1
19.11.2017 12:00:00 8,3 4,7 8,4 40 21 79 43 WNW 1007,4 14 18 0,2
19.11.2017 11:00:00 7,2 3,8 6,5 55 30 84 46 NNW 1007,2 21 1 0,3
19.11.2017 10:00:00 9,0 5,2 7,6 41 22 67 36 WNW 1005,9 15 0 0,4
19.11.2017 09:00:00 9,0 4,8 8,0 39 21 64 35 WNW 1005,5 17 0 0,0
19.11.2017 08:00:00 8,5 4,4 6,0 44 24 76 41 WNW 1005,1 20 0 0,2
19.11.2017 07:00:00 8,2 4,2 6,0 34 18 81 44 WNW 1004,9 15 0 0,4
19.11.2017 06:00:00 8,3 4,0 6,8 30 16 54 29 WNW 1005,2 19 0 0,0
19.11.2017 05:00:00 7,2 3,4 4,4 32 17 71 38 W 1005,5 19 0 0,4
19.11.2017 04:00:00 8,1 3,0 6,0 31 17 77 42 WNW 1005,7 16 0 0,0
19.11.2017 03:00:00 8,1 3,6 5,9 40 22 61 33 WNW 1006,3 22 0 0,1
19.11.2017 02:00:00 8,2 4,0 6,1 32 17 58 32 W 1006,7 21 0 0,0

tt = Température de l'air
td = dewpoint
tt 5cm = Température de l'air 5cm
ff = Vitesse du vent
fx = gusts
dd = Direction du vent
ppp = reduced air pressure
vv = visibility
sd = Ensoleillement
rr = Quantités de précipitations

stations d'obs. à proximité